DW2128 Weather Reports


Display with metric or nautical units.
time (UTC)temp
F
wind
direction
speed
MPH
gust
MPH
rain 1hr
in
rain 24hr
in
rain mn
in
humidity
%
barometer
mb
20260505050530 57 258 0.0 0.0 0.00 0.00 0.00 68 1013.8
20260505050333 57 258 0.0 0.0 0.00 0.00 0.00 68 1013.6
20260505040530 59 250 0.0 0.0 0.00 0.00 0.00 61 1013.2
20260505040339 59 250 0.0 0.0 0.00 0.00 0.00 61 1013.0
20260505035034 59 250 0.0 0.0 0.00 0.00 0.00 59 1013.0
20260505034900 59 250 0.0 0.0 0.00 0.00 0.00 59 1012.6
20260505033533 59 249 0.0 0.0 0.00 0.00 0.00 58 1012.6
20260505033322 59 249 0.0 0.0 0.00 0.00 0.00 57 1012.6
20260505032018 59 355 0.0 0.0 0.00 0.00 0.00 57 1012.6
20260505031825 59 355 0.0 0.0 0.00 0.00 0.00 57 1012.6
20260505030541 59 355 0.0 0.0 0.00 0.00 0.00 57 1012.6
20260505030323 60 355 0.0 0.0 0.00 0.00 0.00 56 1012.6
20260505025020 60 355 0.0 0.0 0.00 0.00 0.00 59 1012.6
20260505024849 60 355 0.0 0.0 0.00 0.00 0.00 58 1012.5
20260505023522 60 339 0.0 0.0 0.00 0.00 0.00 58 1012.5
20260505023348 60 342 0.0 0.0 0.00 0.00 0.00 58 1012.4
20260505022022 60 9 1.0 0.0 0.00 0.00 0.00 59 1012.4
20260505021847 60 329 2.0 0.0 0.00 0.00 0.00 58 1012.5
20260505020541 61 15 1.0 0.0 0.00 0.00 0.00 57 1012.5
20260505020328 61 15 1.0 0.0 0.00 0.00 0.00 56 1012.5
20260505015023 61 288 1.0 0.0 0.00 0.00 0.00 54 1012.5
20260505014828 61 276 1.0 0.0 0.00 0.00 0.00 54 1012.4
20260505013523 61 300 0.0 0.0 0.00 0.00 0.00 55 1012.4
20260505013327 62 5 0.0 0.0 0.00 0.00 0.00 55 1012.6
20260505012021 62 349 1.0 0.0 0.00 0.00 0.00 54 1012.6
20260505011831 62 315 1.0 0.0 0.00 0.00 0.00 55 1012.6
20260505010525 63 9 1.0 0.0 0.00 0.00 0.00 54 1012.6
20260505010329 63 5 1.0 0.0 0.00 0.00 0.00 53 1012.6
20260505005024 63 234 0.0 0.0 0.00 0.00 0.00 54 1012.6
20260505004828 63 244 1.0 0.0 0.00 0.00 0.00 54 1012.7
20260505003524 63 281 1.0 0.0 0.00 0.00 0.00 55 1012.7
20260505003333 63 266 1.0 0.0 0.00 0.00 0.00 56 1012.7
20260505002048 63 244 1.0 0.0 0.00 0.00 0.00 55 1012.7
20260505001832 63 244 1.0 0.0 0.00 0.00 0.00 55 1012.6
20260505000528 64 240 1.0 0.0 0.00 0.00 0.00 53 1012.6
20260505000334 65 240 1.0 0.0 0.00 0.00 0.00 52 1012.6
20260504235028 67 11 1.0 0.0 0.00 0.00 0.00 51 1012.6
20260504234836 66 13 1.0 0.0 0.00 0.00 0.00 51 1012.6
20260504233533 63 318 0.0 0.0 0.00 0.00 0.00 54 1012.5
20260504233337 63 336 0.0 0.0 0.00 0.00 0.00 54 1012.6
20260504232031 63 304 1.0 0.0 0.00 0.00 0.00 55 1012.6
20260504231841 63 304 1.0 0.0 0.00 0.00 0.00 54 1012.6
20260504230535 63 22 1.0 0.0 0.00 0.00 0.00 53 1012.6
20260504230341 64 19 1.0 0.0 0.00 0.00 0.00 53 1012.6
20260504225035 64 234 0.0 0.0 0.00 0.00 0.00 52 1012.6
20260504224840 64 234 0.0 0.0 0.00 0.00 0.00 51 1012.6
20260504223555 64 219 1.0 0.0 0.00 0.00 0.00 51 1012.6
20260504223346 64 217 2.0 0.0 0.00 0.00 0.00 52 1012.7
20260504222023 64 244 1.0 0.0 0.00 0.00 0.00 50 1012.7
20260504221828 64 244 1.0 0.0 0.00 0.00 0.00 51 1012.7
20260504220526 64 234 2.0 0.0 0.00 0.00 0.00 52 1012.7
20260504220329 64 234 2.0 0.0 0.00 0.00 0.00 51 1013.0
20260504215026 64 250 4.0 0.0 0.00 0.00 0.00 52 1013.0
20260504214836 64 244 4.0 0.0 0.00 0.00 0.00 51 1013.1
20260504213530 64 250 2.0 0.0 0.00 0.00 0.00 51 1013.1
20260504213335 64 250 2.0 0.0 0.00 0.00 0.00 51 1013.0
20260504212049 64 249 1.0 0.0 0.00 0.00 0.00 50 1013.0
20260504211834 64 230 2.0 0.0 0.00 0.00 0.00 49 1013.1
20260504210529 65 252 3.0 0.0 0.00 0.00 0.00 49 1013.1
20260504210336 65 195 3.0 0.0 0.00 0.00 0.00 49 1013.1
20260504205053 66 213 2.0 0.0 0.00 0.00 0.00 48 1013.1
20260504204837 65 244 2.0 0.0 0.00 0.00 0.00 47 1013.1
20260504203533 65 229 4.0 0.0 0.00 0.00 0.00 48 1013.1
20260504203321 65 236 3.0 0.0 0.00 0.00 0.00 50 1013.1
20260504202052 64 223 2.0 0.0 0.00 0.00 0.00 49 1013.1
20260504201839 64 223 2.0 0.0 0.00 0.00 0.00 50 1013.1
20260504200534 64 248 4.0 0.0 0.00 0.00 0.00 50 1013.1
20260504200320 64 251 4.0 0.0 0.00 0.00 0.00 50 1013.1
20260504195020 64 234 2.0 0.0 0.00 0.00 0.00 46 1013.1
20260504194830 64 229 2.0 0.0 0.00 0.00 0.00 45 1013.1
20260504193525 64 226 0.0 0.0 0.00 0.00 0.00 44 1013.1
20260504193330 64 226 0.0 0.0 0.00 0.00 0.00 45 1013.1
20260504192023 64 233 1.0 0.0 0.00 0.00 0.00 50 1013.1
20260504191827 63 233 1.0 0.0 0.00 0.00 0.00 48 1013.2
20260504190541 63 315 1.0 0.0 0.00 0.00 0.00 48 1013.2
20260504190328 63 315 1.0 0.0 0.00 0.00 0.00 48 1013.3
20260504185042 63 316 1.0 0.0 0.00 0.00 0.00 48 1013.3
20260504184823 63 316 1.0 0.0 0.00 0.00 0.00 49 1013.3
20260504183537 63 292 1.0 0.0 0.00 0.00 0.00 48 1013.3
20260504183340 63 292 1.0 0.0 0.00 0.00 0.00 48 1013.4
20260504182035 63 292 1.0 0.0 0.00 0.00 0.00 48 1013.4
20260504181826 63 292 1.0 0.0 0.00 0.00 0.00 48 1013.4
20260504180520 63 292 1.0 0.0 0.00 0.00 0.00 50 1013.4
20260504180325 63 292 1.0 0.0 0.00 0.00 0.00 50 1013.1
20260504175025 63 246 1.0 0.0 0.00 0.00 0.00 49 1013.1
20260504174830 64 223 1.0 0.0 0.00 0.00 0.00 48 1013.1
20260504173525 63 355 1.0 0.0 0.00 0.00 0.00 48 1013.1
20260504173334 63 259 0.0 0.0 0.00 0.00 0.00 49 1013.0
20260504172051 64 243 1.0 0.0 0.00 0.00 0.00 48 1013.1
20260504171835 64 238 1.0 0.0 0.00 0.00 0.00 47 1012.9
20260504170530 64 325 0.0 0.0 0.00 0.00 0.00 49 1012.9
20260504170319 64 325 0.0 0.0 0.00 0.00 0.00 49 1013.0
20260504160346 60 122 0.0 0.0 0.00 0.00 0.00 59 1013.3
20260504150522 54 125 0.0 0.0 0.00 0.00 0.00 70 1013.2
20260504150330 54 125 0.0 0.0 0.00 0.00 0.00 71 1013.1
20260504140531 49 143 0.0 0.0 0.00 0.00 0.00 82 1013.0
20260504140356 48 143 0.0 0.0 0.00 0.00 0.00 82 1013.0
20260504130554 48 143 0.0 0.0 0.00 0.00 0.00 81 1012.2
20260504130342 48 143 0.0 0.0 0.00 0.00 0.00 81 1012.2
20260504110522 49 143 0.0 0.0 0.00 0.00 0.00 77 1012.4
20260504110332 49 143 0.0 0.0 0.00 0.00 0.00 77 1012.5
20260504100530 50 143 0.0 0.0 0.00 0.00 0.00 76 1012.3
20260504100355 50 143 0.0 0.0 0.00 0.00 0.00 76 1012.3
20260504081829 51 143 0.0 0.0 0.00 0.00 0.00 75 1013.0
20260504080523 51 143 0.0 0.0 0.00 0.00 0.00 74 1013.0
20260504080332 51 143 0.0 0.0 0.00 0.00 0.00 74 1013.0
20260504070333 53 143 0.0 0.0 0.00 0.00 0.00 67 1012.9